Regional Weather Roundup
Issued by NWS Grand Forks, ND

Home | Current Version | Previous Version | Graphics & Text | Print | Product List | Glossary On
Versions: 1 2 3 4 5 6 7 8 9 10 11 12 13 14 15 16 17 18 19 20 21 22 23 24 25 26 27 28 29 30 31 32 33 34 35 36 37 38 39 40 41 42 43 44 45 46 47 48 49 50
000
ASUS43 KFGF 021931
RWRFGF
PRAIRIE TO PINES  WEATHER ROUNDUP
NATIONAL WEATHER SERVICE EASTERN NORTH DAKOTA/GRAND FORKS ND
100 PM CST MON MAR 02 2015

 **SATELLITE DATA USED TO AUGMENT SKY COVER AT AUTOMATED STATIONS**
 *****  WEATHER ACROSS EASTERN NORTH DAKOTA  *****

CITY           SKY/WX    TMP DP  RH WIND       PRES   REMARKS
GRAND FORKS    NOT AVBL
GRAND FRKS AFB NOT AVBL
GRAND FRKS NWS   N/A     27 N/A N/A S21         N/A  WCI  13
DEVILS LAKE    SUNNY     25  16  68 S21G29    29.96F WCI  10
WAHPETON ARPT  CLEAR     30  10  43 S21G29    30.20F WCI  17
$$

 ***** WEATHER ACROSS CENTRAL AND WESTERN NORTH DAKOTA  *****

CITY           SKY/WX    TMP DP  RH WIND       PRES   REMARKS
BISMARCK       NOT AVBL
MINOT          NOT AVBL
JAMESTOWN      NOT AVBL
MINOT AFB      NOT AVBL
GARRISON       NOT AVBL
WILLISTON      NOT AVBL
DICKINSON      NOT AVBL
HETTINGER      NOT AVBL
$$

 *****  OTHER AIRPORT OBSERVATIONS IN OUR AREA  *****

CITY           SKY/WX    TMP DP  RH WIND       PRES   REMARKS
WALHALLA         N/A     27  14  59 S14G24    30.03F WCI  15
GRAFTON AIRPOR NOT AVBL
VALLEY CITY AR FLURRIES  27  18  69 S21G26    30.06F WCI  13
CANDO          FAIR      25  18  74 S23       29.93F WCI  10
CAVALIER APRT  FAIR      28  14  54 S21G28    30.05F WCI  15
GWINNER        MOCLDY    30  18  59 S21       30.13F WCI  17
SHEYENNE NWR     N/A     31  12  44 S17       29.95S WCI  19
ROLLA          FAIR      23  16  74 S22G30    29.88F WCI   8
 ***** THE ABOVE OBSERVATIONS ARE NON NWS ARE NOT QUALITY
       CONTROLLED AND MAY MIS-REPORT RAIN FOR SNOW...
$$

  *****  WEATHER ACROSS NORTHERN MINNESOTA  *****

CITY           SKY/WX    TMP DP  RH WIND       PRES   REMARKS
FLAG ISLAND    SUNNY     14   9  79 SE12      30.16F WCI   0
WARROAD        SUNNY     23  10  58 SW10G17   30.16F WCI  12
ROSEAU         SUNNY     21  12  68 S14       30.15F WCI   8
HALLOCK        SUNNY     21  12  68 S23       30.12F WCI   5
THF RVR FALLS  SUNNY     21   9  58 S18       30.17F WCI   6
BAUDETTE       NOT AVBL
WASKISH        SUNNY     25  12  58 CALM      30.20F
CROOKSTON      SUNNY     25  16  68 S24       30.18F WCI   9
STEPHEN NDAWN    N/A     21  16  79 S20         N/A  WCI   6
GREENBUSH NDAW   N/A     21  10  63 S16         N/A  WCI   7
$$
  *****  WEATHER ACROSS CENTRAL AND WEST MINNESOTA  *****

CITY           SKY/WX    TMP DP  RH WIND       PRES   REMARKS
FOSSTON        SUNNY     25  10  54 S15       30.19F WCI  12
BEMIDJI        SUNNY     25   8  47 S10G17    30.19F WCI  15
PARK RAPIDS    NOT AVBL
ELBOW LAKE     FAIR      26  13  59 S21       30.24F WCI  11
WADENA         SUNNY     25  10  54 S15       30.24F WCI  12
DETROIT LAKES  MIX PCPN  25  10  54 S18       30.21F WCI  11
MOORHEAD       SUNNY     30   9  40 S23G30    30.19F WCI  17
FERGUS FALLS   SUNNY     27   9  46 S22G28    30.26F WCI  12
MORRIS MN      SUNNY     28  12  50 S21       30.25F WCI  15
STAPLES        SUNNY     25   7  46 S14       30.26F WCI  13
$$
  *****  WEATHER ELSEWHERE ACROSS MINNESOTA  *****

CITY           SKY/WX    TMP DP  RH WIND       PRES   REMARKS
DULUTH         NOT AVBL
INTRNTL FALLS  NOT AVBL
ELY            SUNNY     21   5  49 SW10      30.25F WCI  10
CLOQUET        SUNNY     25   7  46 SW6       30.28F WCI  18
WHEATON        SUNNY     27  12  54 SE18G25   30.23F WCI  13
BRAINERD       NOT AVBL
HIBBING        NOT AVBL
ALEXANDRIA     NOT AVBL
SAINT CLOUD    NOT AVBL
MINNEAPOLIS    NOT AVBL
$$

  *****  WEATHER ACROSS SOUTH DAKOTA  *****

CITY           SKY/WX    TMP DP  RH WIND       PRES   REMARKS
SIOUX FALLS    NOT AVBL
BROOKINGS      NOT AVBL
WATERTOWN      NOT AVBL
HURON          NOT AVBL
SISSETON       NOT AVBL
ABERDEEN       NOT AVBL
MITCHELL       NOT AVBL
PIERRE         NOT AVBL
MOBRIDGE       NOT AVBL
RAPID CITY     NOT AVBL
$$

  *****  SOME WEATHER IN NEARBY STATES *****

CITY           SKY/WX    TMP DP  RH WIND       PRES   REMARKS
GLASGOW MT     NOT AVBL
GREAT FALLS MT NOT AVBL
CHEYENNE WY    NOT AVBL
SCOTTSBLUFF NE NOT AVBL
OMAHA NE       NOT AVBL
DES MOINES IA  NOT AVBL
DAVENPORT IA   NOT AVBL
CHICAGO IL     NOT AVBL
EAU CLAIRE WI  NOT AVBL
LA CROSSE WI   NOT AVBL
$$

  *****  SOME NATIONAL WEATHER *****

CITY           SKY/WX    TMP DP  RH WIND       PRES   REMARKS
LA GUARDIA NY  NOT AVBL
RALEIGH NC     NOT AVBL
ATLANTA GA     NOT AVBL
NEW ORLEANS LA NOT AVBL
OKLAHOMA CITY  NOT AVBL
ALBUQUERQUE NM CLOUDY    50  33  52 N8        29.98F
SALT LAKE CITY NOT AVBL
LOS ANGELES CA NOT AVBL
BOISE ID       NOT AVBL
SEATTLE WA     NOT AVBL
$$

*** WEATHER ACROSS MANITOBA...SASKATCHEWAN AND ONTARIO ***
                ***ONTARIO***

CITY           SKY/WX    TMP DP  RH WIND       PRES   REMARKS
GERALDTON      MOSUNNY   16  -9  32 W8        30.22F WCI   5
THUNDER BAY    SUNNY     23  -2  33 W5        30.31F WCI  17
SIOUX LOOKOUT  PTSUNNY   18  -2  41 SW9       30.19F WCI   6
TORONTO        MOSUNNY   27   9  46 NW24G30   30.31R WCI  12
BIG TROUT LK   SUNNY     10  -2  56 S6        30.00F WCI   1
PICKLE LAKE    MOSUNNY   18  -6  35 SW10G17   30.11F WCI   6
DRYDEN         SUNNY     19  -2  38 S14G22    30.18F WCI   6
KENORA         PTSUNNY   18   7  62 SW17G23   30.16F WCI   2
$$
                *** MANITOBA***

CITY           SKY/WX    TMP DP  RH WIND       PRES   REMARKS
BRANDON        PTSUNNY   25  14  63 S18G24    29.89F WCI  11
DAUPHIN        SUNNY     28  12  50 SW15G22   29.83F WCI  17
ISLAND LAKE    CLOUDY    19   3  49 SW17G25   29.90F WCI   4
PILOT MOUND      N/A     18  12  79 S25         N/A  WCI  -1
THE PAS        CLOUDY    25   9  50 S15G21    29.69F WCI  12
THOMPSON       CLOUDY    19   3  49 S9G18     29.66F WCI   9
WINNIPEG       PTSUNNY   18   9  68 S18       30.09F WCI   2
LYNN LAKE      LGT SNOW  16  10  79 NW22G31   29.61R WCI  -2
CHURCHILL      CLOUDY    -6 -15  65 E13       29.80F WCI -25
GILLAM         CLOUDY    18   1  49 S13G23    29.73F WCI   4
$$
                ***SASKATCHEWAN***

CITY           SKY/WX    TMP DP  RH WIND       PRES   REMARKS
ESTEVAN        PTSUNNY   27  14  59 S22       29.75F WCI  12
KINDERSLEY     BLWGSNOW  18  12  79 N36G45    29.89R VSB 1/4 WCI  -3
LLOYDMINSTER   PTSUNNY   14   5  67 N24G35    29.97  WCI  -5
PRINCE ALBERT  LGT SNOW  18  10  73 N24G38    29.79R BLWGSNOWWCI   0
REGINA         PTSUNNY   23  16  74 W16       29.71F WCI  10
YORKTON        SUNNY     23  12  63 S13G28    29.72F WCI  11
N. BATTLEFORD  MOSUNNY   18  12  79 NW24G35   29.91R HAZE    WCI   0
LA RONGE       LGT SNOW  14   5  67 NW22G28   29.83R DRFTSNOWWCI  -4
SASKATOON      LGT SNOW  19  14  79 N20G28    29.82R VSB 1   WCI   4
SWIFT CURRENT  LGT SNOW  18  16  93 NW28G36   29.79R WCI  -1
$$
NOTE: THESE ARE AUTOMATED STATIONS WITH LIMITED QUALITY CONTROL
      "FAIR" INDICATES FEW OR NO CLOUDS BELOW 12,000 FEET WITH NO
      SIGNIFICANT WEATHER AND/OR OBSTRUCTIONS TO VISIBILITY.
      SKY/WX - SKY CONDITION AND SIGNIFICANT WEATHER.
      TMP - AIR TEMPERATURE.    DP   - DEWPOINT TEMPERATURE.
      RH  - RELATIVE HUMIDITY.  PRES - PRESSURE.
      HX  - HEAT INDEX.         WCI  - WIND CHILL INDEX.
$


USA.gov is the U.S. government's official web portal to all federal, state and local government web resources and services.